Tracking 31027 objects as of 19-Jul-2025
HD Live streaming from Space Station
objects crossing your sky now

INTELSAT 4-F1

Track INTELSAT 4-F1 now!
INTELSAT 4-F1 is classified as:


NORAD ID: 7815
Int'l Code: 1975-042A
Perigee: 36,025.9 km
Apogee: 36,131.0 km
Inclination: 9.0 °
Period: 1,450.7 minutes
Semi major axis: 42449 km
RCS: 12.6 m2 (large)
Launch date: May 22, 1975
Source: International Telecommunications Satellite Organization (ITSO)
Launch site: AIR FORCE EASTERN TEST RANGE (AFETR)
Your satellite tracking list
FENGYUN 1C DEB
Track 1 satellite(s)




NASA's NSSDC Master Catalog

Two Line Element Set (TLE):
1 07815U 75042A   25198.58959983 -.00000250  00000-0  00000-0 0  9998
2 07815   8.9557 308.4574 0012381 259.4029 100.5666  0.99264769118639
Source of the keplerian elements: AFSPC